星链-31957 (STARLINK-31957 )

导读

STARLINK-31957是美国SpaceX公司星链(Starlink)星座的组网卫星,于北京时间2024年6月1日08时发射升空,旨在为全球提供高速低延迟互联网服务。该卫星延续星链星座标准设计,依托一箭多星发射方式部署,进一步扩充星链星座规模,完善全球卫星互联网覆盖能力。

Basic Information
目录编号:
59926
目录名称:
STARLINK-31957
国际标识:
2024-106E
轨道中心:
EARTH
卫星名称:
星链-31957
卫星全名:
星链-31957 (STARLINK-31957 )
卫星状态:
在轨 (已飞行746 天)
发射日期:
2024-06-01 UTC
国别 :
美国 (US)
星等 :
--
Orbit Information
数据来源 国际轨道数据 AOE轨道数据
星历时间 2026-06-17T12:26:21+0800
13小时前
查看轨道信息
2026-06-17T02:00:00+0800
1天前
查看轨道信息
半长轴 6861.197km 6861.198km
偏心率 0.0001099 0.0001451
轨道倾角 42.999° 43.001°
近地点辐角 265.489° 243.190°
升交点赤经 130.253° 132.712°
平近点角 94.583° 242.094°
近地点 482.305km 482.065km
远地点 483.815km 484.057km
周期 94.267分钟 94.267分钟
每日圈数 15.275765 15.275761
Detailed Information
固有亮度:
5
最大亮度:
1.5
卫星平台:
Starlink v2.0 mini
覆盖范围:
全球
运营商:
太空探索技术公司
运营商所在国:
美国
制造商(研发单位):
太空探索技术公司
制造商所在国:
美国
使用方式:
暂无
Satellite Introduction
星链(Starlink)计划是由太空探索技术公司(SpaceX)提出的一个巨型低轨卫星互联网星座项目,计划在2019年至2024年间在太空搭建由约1.2万颗卫星组成的“星链”网络,其中1584颗将部署在地球上空550千米处的近地轨道,并从2020年开始工作。该卫星仍在工作。
2D Orbit Map
3D Orbit Map
Orbit Altitude Analysis Chart
Orbit Inclination Analysis Chart
Orbit Comprehensive Analysis Chart
View Comprehensive Chart